User: anonymous   Login
Location: Meriden
(44.0740°N, 93.3870°W)
Time: 17:22:38
(UTC-05:00)
Language:

Hamsat - Orbit

View from above orbital plane
View from above orbital plane
View from above satellite
View from above satellite

Ground track
Ground track

The orbit data is extracted from the following two-line orbital elements,

1 28650U 05017B   17267.90055499  .00000323  00000-0  40184-4 0  9997
2 28650  97.6623 238.9201 0024025 157.0809 203.1486 14.88746814671003
Epoch (UTC): 24 September 2017 21:36:47
Eccentricity: 0.0024025
inclination: 97.6623°
perigee height: 585 km
apogee height: 618 km
right ascension of ascending node: 238.9201°
argument of perigee: 157.0809°
revolutions per day: 14.88746814
mean anomaly at epoch: 203.1486°
orbit number at epoch: 67100

The dashed part of the orbit path shows where the satellite is in the earth's shadow,  

DLR